This demonstration page uses our WeatherBlox Daily Observations layout. Learn more.

Left ArrowRight Arrow

39.08367, -84.50855

Hourly Observations for March 13, 2015

Temp ( °F °C ) Dew Point ( °F °C ) Humidity (%) Winds ( mph kmh ) Pressure ( in mb ) Visibility ( mi km ) Precip ( " mm )
12:53 am 00:53 Clear 44 6.7 32 undefined 63 63 NNE 5 7 30.36 1028 10 16.0934 N/A
1:53 am 01:53 Clear 42 5.6 34 1.1 73 73 E 3 6 30.34 1027 10 16.0934 N/A
2:53 am 02:53 Clear 40 4.4 32 undefined 73 73 N N/A 30.32 1027 10 16.0934 N/A
3:53 am 03:53 Clear 42 5.6 34 1.1 73 73 NE 3 6 30.3 1026 10 16.0934 N/A
4:53 am 04:53 Partly Cloudy 42 5.6 36 2.2 79 79 NE 3 6 30.28 1025 10 16.0934 N/A
5:53 am 05:53 Mostly Clear 42 5.6 35 1.7 76 76 N N/A 30.27 1025 10 16.0934 N/A
6:53 am 06:53 Cloudy 43 6.1 35 1.7 74 74 N N/A 30.27 1025 10 16.0934 N/A
7:53 am 07:53 Partly Cloudy 42 5.6 34 1.1 73 73 N N/A 30.27 1025 10 16.0934 N/A
8:53 am 08:53 Cloudy 44 6.7 36 2.2 73 73 N N/A 30.27 1025 10 16.0934 N/A
9:53 am 09:53 Cloudy 47 8.3 36 2.2 66 66 N N/A 30.27 1025 10 16.0934 N/A
10:53 am 10:53 Cloudy with Light Rain 49 9.4 37 2.8 64 64 N N/A 30.27 1025 10 16.0934 N/A
11:53 am 11:53 Cloudy with Rain 48 8.9 44 6.7 86 86 S 3 6 30.28 1025 3 4.82802 0.07 1.778
12:27 pm 12:27 Cloudy with Heavy Rain 48 8.9 46 7.8 93 93 N N/A 30.27 1025 1.75 2.816345 0.1 2.54
12:46 pm 12:46 Cloudy with Rain 48 9 46 8 94 94 N N/A 30.27 1025 2 3.21868 N/A
12:53 pm 12:53 Cloudy with Rain 49 9.4 48 8.9 97 97 N N/A 30.26 1025 3 4.82802 0.19 4.826
1:11 pm 13:11 Cloudy with Heavy Rain 49 9.4 48 8.9 97 97 SSW 5 7 30.27 1025 1.5 2.41401 0.07 1.778
1:27 pm 13:27 Cloudy with Rain 49 9.4 48 8.9 97 97 S 6 9 30.24 1024 2 3.21868 0.15 3.81
1:51 pm 13:51 Cloudy with Light Rain 50 10 48 9 94 94 ESE 5 7 30.24 1024 5 8.0467 0.22 5.588
1:53 pm 13:53 Cloudy with Light Rain 50 10 48 8.9 93 93 ESE 3 6 30.25 1024 6 9.65604 0.22 5.588
2:23 pm 14:23 Cloudy with Heavy Rain 50 10 49 9.4 96 96 VRB 3 6 30.24 1024 2.5 4.02335 0.06 1.524
2:46 pm 14:46 Cloudy with Heavy Rain 50 10 48 9 94 94 N N/A 30.21 1023 1.75 2.816345 N/A
2:53 pm 14:53 Cloudy with Heavy Rain 50 10 49 9.4 96 96 N N/A 30.22 1024 1.75 2.816345 0.17 4.318
3:11 pm 15:11 Cloudy with Rain 50 10 49 9.4 96 96 NNE 3 6 30.21 1023 2.5 4.02335 0.07 1.778
3:30 pm 15:30 Cloudy with Heavy Rain 50 10 48 9 94 94 SE 3 6 30.21 1023 1.75 2.816345 N/A
3:40 pm 15:40 Cloudy with Rain 50 10 50 10 100 100 SE 6 9 30.21 1023 2.5 4.02335 N/A
3:49 pm 15:49 Cloudy with Light Rain 50 10 48 9 94 94 SE 5 7 30.21 1023 4 6.43736 0.15 3.81
3:53 pm 15:53 Cloudy with Light Rain 50 10 49 9.4 96 96 SE 5 7 30.2 1023 5 8.0467 0.15 3.81
4:16 pm 16:16 Cloudy with Rain 50 10 48 9 94 94 SE 5 7 30.18 1022 2.5 4.02335 N/A
4:21 pm 16:21 Cloudy with Rain 50 10 49 9.4 96 96 undefined N/A 30.18 1022 3 4.82802 0.05 1.27
4:53 pm 16:53 Cloudy with Rain 50 10 50 10 100 100 S 3 6 30.19 1022 3 4.82802 0.1 2.54
5:17 pm 17:17 Cloudy with Heavy Rain 50 10 49 9.4 96 96 SE 3 6 30.18 1022 3 4.82802 0.07 1.778
5:50 pm 17:50 Cloudy with Light Rain 50 10 48 9 94 94 S 5 7 30.15 1021 3 4.82802 N/A
5:53 pm 17:53 Cloudy with Light Rain 50 10 50 10 100 100 SSE 3 6 30.16 1022 3 4.82802 0.1 2.54
6:53 pm 18:53 Cloudy with Light Rain 50 10 49 9.4 96 96 S 5 7 30.16 1021 4 6.43736 0.02 0.508
6:55 pm 18:55 Cloudy with Light Rain 50 10 49 9.4 96 96 VRB 3 6 30.15 1021 4 6.43736 N/A
7:53 pm 19:53 Cloudy with Rain 50 10 49 9.4 96 96 S 5 7 30.15 1021 4 6.43736 0.1 2.54
8:53 pm 20:53 Cloudy with Light Rain 50 10 49 9.4 96 96 N N/A 30.14 1021 8 12.87472 0.04 1.016
9:53 pm 21:53 Cloudy with Light Rain 49 9.4 49 9.4 100 100 N N/A 30.12 1020 8 12.87472 0.04 1.016
10:53 pm 22:53 Cloudy with Light Rain 49 9.4 49 9.4 100 100 N N/A 30.1 1019 9 14.48406 0.01 0.254
11:53 pm 23:53 Cloudy with Light Rain 49 9.4 49 9.4 100 100 N N/A 30.08 1019 7 11.26538 0.04 1.016

Powered by AerisWeather